Погода в Манилах

Россия / Камчатский край     62°29′06″N   165°20′21″E
темп.,
°C
ветер,
м/с
пор.,
м/с
влажн.,
%
обл.,
%
осадки,
мм/ч
давл.,
гПа
погр.,
м
22 апреля, чт
чт2200:00−8св448890 0.0 103319
03:00−9св449115 0.0 103321
06:00−10св449514 0.0 103226
09:00−5всв33895 0.0 1031113
12:00−2в127944 0.0 1029258
15:00−1вюв22825 0.0 1027237
18:00−1в12845 0.0 102638
21:00−8ссв448830 0.0 102613
23 апреля, пт
пт2300:00−9св3389100 0.0 102511
03:00−7св1187100 0.0 102410
06:00−8св118876 0.0 102410
09:00−5ююв118224 0.0 102370
12:00−3ююз10805 0.0 1022181
15:00−2ю11856 0.0 1020190
18:00−2юв118635 0.0 101964
21:00−7св339183 0.0 101811
24 апреля, сб
сб2400:00−8св338912 0.0 101712
03:00−9св439014 0.0 101616
06:00−9св449018 0.0 101428
09:00−5всв33835 0.0 1013112
12:00−2всв237886 0.0 1012253
15:00−1в238099 0.0 1011287
18:00−1в128481 0.0 1011112
21:00−6св338998 0.0 101114
25 апреля, вс
вс2500:00−6св228887 0.0 101012
03:00−7св2288100 0.0 100911
06:00−6св2288100 0.0 100913
09:00−3юв1182100 0.0 1009132
12:00−2юв2286100 0.0 1009294
15:00−1вюв2295100 0.3 1008237
18:00−1вюв2397100 1.0 1008235
21:00−3в2398100 1.4 100959
26 апреля, пн
пн2600:00−3в2397100 2.9 101069
03:00−3всв3297100 1.0 101139
06:00−4всв3394100 1.3 101227
09:00−1вюв2393100 0.3 1013187
12:000юв229560 0.3 1013209
15:000юв129342 0.0 1014218
18:000вюв119427 0.0 101446
21:00−5св2296100 0.0 101410